• En España
  • Lista de países
  • Para 7 días
  • Temperatura del agua
  • Mapa Satelital
  • El tiempo en el mapa
  • Informadores
  • user-avatar
    Iniciar sesión

    Tiempo cada hora Córdoba

    Hoy, 20 Octubre, Sábado

    Tiempo Temperatura Precipitaciones Viento Presión Humedad
    00:00 +19°C° 0 mm 2 mps 726 mmHg 78%
    01:00 +19°C° 0 mm 2 mps 726 mmHg 80%
    02:00 +19°C° 0 mm 3 mps 726 mmHg 82%
    03:00 +18°C° 0.3 mm 3 mps 726 mmHg 85%
    04:00 +18°C° 0.3 mm 3 mps 726 mmHg 87%
    05:00 +18°C° 0.3 mm 3 mps 725 mmHg 90%
    06:00 +18°C° 0.5 mm 3 mps 726 mmHg 90%
    07:00 +18°C° 0.5 mm 4 mps 726 mmHg 90%
    08:00 +18°C° 0.5 mm 4 mps 726 mmHg 90%
    09:00 +18°C° 0.2 mm 4 mps 726 mmHg 89%
    10:00 +18°C° 0.2 mm 4 mps 726 mmHg 87%
    11:00 +19°C° 0.2 mm 4 mps 726 mmHg 85%
    12:00 +19°C° 0.1 mm 3 mps 725 mmHg 83%
    13:00 +19°C° 0.1 mm 3 mps 725 mmHg 81%
    14:00 +19°C° 0.1 mm 2 mps 724 mmHg 80%
    15:00 +19°C° 0 mm 2 mps 724 mmHg 79%
    16:00 +19°C° 0 mm 2 mps 723 mmHg 79%
    17:00 +19°C° 0 mm 2 mps 723 mmHg 78%
    18:00 +19°C° 0 mm 2 mps 723 mmHg 80%
    19:00 +19°C° 0 mm 1 mps 724 mmHg 83%
    20:00 +19°C° 0 mm 1 mps 724 mmHg 85%
    21:00 +19°C° 0 mm 1 mps 724 mmHg 84%
    22:00 +19°C° 0 mm 1 mps 724 mmHg 84%
    23:00 +19°C° 0 mm 1 mps 724 mmHg 84%

    Mañana, 21 Octubre, Domingo

    Tiempo Temperatura Precipitaciones Viento Presión Humedad
    00:00 +18°C° 0.1 mm 1 mps 724 mmHg 85%
    01:00 +18°C° 0.1 mm 1 mps 724 mmHg 85%
    02:00 +16°C° 0.1 mm 1 mps 723 mmHg 86%
    03:00 +16°C° 0.3 mm 1 mps 723 mmHg 86%
    04:00 +16°C° 0.3 mm 1 mps 723 mmHg 87%
    05:00 +16°C° 0.3 mm 1 mps 723 mmHg 87%
    06:00 +18°C° 0 mm 1 mps 723 mmHg 82%
    07:00 +18°C° 0 mm 2 mps 724 mmHg 77%
    08:00 +20°C° 0 mm 2 mps 724 mmHg 73%
    09:00 +21°C° 0 mm 3 mps 724 mmHg 69%
    10:00 +22°C° 0 mm 3 mps 724 mmHg 65%
    11:00 +25°C° 0 mm 3 mps 724 mmHg 61%
    12:00 +26°C° 0 mm 4 mps 723 mmHg 58%
    13:00 +27°C° 0 mm 4 mps 723 mmHg 56%
    14:00 +28°C° 0 mm 4 mps 722 mmHg 53%
    15:00 +28°C° 0.1 mm 4 mps 722 mmHg 55%
    16:00 +27°C° 0.1 mm 4 mps 721 mmHg 57%
    17:00 +27°C° 0.1 mm 4 mps 721 mmHg 59%
    18:00 +25°C° 0 mm 4 mps 721 mmHg 65%
    19:00 +24°C° 0 mm 3 mps 722 mmHg 72%
    20:00 +21°C° 0 mm 2 mps 722 mmHg 78%
    21:00 +21°C° 0 mm 1 mps 722 mmHg 80%
    22:00 +21°C° 0 mm 1 mps 722 mmHg 82%
    23:00 +21°C° 0 mm 1 mps 722 mmHg 83%

    Pasado mañana, 22 Octubre, Lunes

    Tiempo Temperatura Precipitaciones Viento Presión Humedad
    00:00 +21°C° 0 mm 1 mps 722 mmHg 83%
    01:00 +21°C° 0 mm 1 mps 721 mmHg 84%
    02:00 +21°C° 0 mm 1 mps 721 mmHg 84%
    03:00 +21°C° 0 mm 1 mps 721 mmHg 84%
    04:00 +21°C° 0 mm 1 mps 721 mmHg 84%
    05:00 +21°C° 0 mm 1 mps 721 mmHg 84%
    06:00 +21°C° 0 mm 1 mps 721 mmHg 81%
    07:00 +22°C° 0 mm 1 mps 722 mmHg 78%
    08:00 +23°C° 0 mm 2 mps 722 mmHg 74%
    09:00 +23°C° 0.1 mm 2 mps 722 mmHg 73%
    10:00 +24°C° 0.1 mm 2 mps 722 mmHg 72%
    11:00 +24°C° 0.1 mm 2 mps 722 mmHg 70%
    12:00 +25°C° 0.1 mm 2 mps 721 mmHg 70%
    13:00 +25°C° 0.1 mm 2 mps 721 mmHg 70%
    14:00 +26°C° 0.1 mm 2 mps 721 mmHg 69%
    15:00 +25°C° 0.1 mm 3 mps 721 mmHg 72%
    16:00 +25°C° 0.1 mm 3 mps 721 mmHg 76%
    17:00 +23°C° 0.1 mm 4 mps 721 mmHg 79%
    18:00 +22°C° 0.4 mm 4 mps 721 mmHg 82%
    19:00 +21°C° 0.4 mm 5 mps 722 mmHg 86%
    20:00 +20°C° 0.4 mm 5 mps 723 mmHg 90%
    21:00 +20°C° 0.4 mm 5 mps 723 mmHg 90%
    22:00 +19°C° 0.4 mm 5 mps 724 mmHg 90%
    23:00 +19°C° 0.4 mm 5 mps 724 mmHg 91%

    23 Octubre, Martes

    Tiempo Temperatura Precipitaciones Viento Presión Humedad
    00:00 +19°C° 0.3 mm 5 mps 724 mmHg 91%
    01:00 +18°C° 0.3 mm 4 mps 724 mmHg 91%
    02:00 +18°C° 0.3 mm 4 mps 724 mmHg 91%
    03:00 +18°C° 0.3 mm 4 mps 724 mmHg 91%
    04:00 +17°C° 0.3 mm 4 mps 725 mmHg 91%
    05:00 +17°C° 0.3 mm 4 mps 725 mmHg 92%
    06:00 +17°C° 0.3 mm 3 mps 726 mmHg 92%
    07:00 +17°C° 0.3 mm 3 mps 726 mmHg 92%
    08:00 +17°C° 0.3 mm 3 mps 726 mmHg 92%
    09:00 +17°C° 0.1 mm 3 mps 726 mmHg 91%
    10:00 +17°C° 0.1 mm 3 mps 726 mmHg 89%
    11:00 +17°C° 0.1 mm 3 mps 726 mmHg 88%
    12:00 +17°C° 0 mm 3 mps 726 mmHg 84%
    13:00 +18°C° 0 mm 3 mps 725 mmHg 80%
    14:00 +19°C° 0 mm 2 mps 725 mmHg 77%
    15:00 +19°C° 0 mm 2 mps 725 mmHg 77%
    16:00 +19°C° 0 mm 2 mps 724 mmHg 78%
    17:00 +19°C° 0 mm 2 mps 724 mmHg 78%
    18:00 +18°C° 0 mm 2 mps 724 mmHg 80%
    19:00 +18°C° 0 mm 2 mps 725 mmHg 82%
    20:00 +18°C° 0 mm 2 mps 725 mmHg 84%
    21:00 +17°C° 0 mm 2 mps 725 mmHg 85%
    22:00 +18°C° 0 mm 1 mps 726 mmHg 85%
    23:00 +18°C° 0 mm 1 mps 726 mmHg 86%

    24 Octubre, Miércoles

    Tiempo Temperatura Precipitaciones Viento Presión Humedad
    00:00 +18°C° 0 mm 1 mps 725 mmHg 86%
    01:00 +17°C° 0 mm 2 mps 725 mmHg 86%
    02:00 +17°C° 0 mm 2 mps 725 mmHg 87%
    03:00 +17°C° 0.1 mm 2 mps 725 mmHg 87%
    04:00 +16°C° 0.1 mm 2 mps 724 mmHg 87%
    05:00 +16°C° 0.1 mm 3 mps 724 mmHg 87%
    06:00 +16°C° 0.1 mm 2 mps 725 mmHg 87%
    07:00 +16°C° 0.1 mm 2 mps 725 mmHg 86%
    08:00 +16°C° 0.1 mm 2 mps 725 mmHg 86%
    09:00 +17°C° 0.1 mm 2 mps 725 mmHg 84%
    10:00 +17°C° 0.1 mm 3 mps 724 mmHg 82%
    11:00 +18°C° 0.1 mm 3 mps 724 mmHg 80%
    12:00 +20°C° 0 mm 3 mps 723 mmHg 75%
    13:00 +21°C° 0 mm 3 mps 723 mmHg 70%
    14:00 +23°C° 0 mm 4 mps 722 mmHg 65%
    15:00 +23°C° 0 mm 4 mps 722 mmHg 65%
    16:00 +23°C° 0 mm 4 mps 721 mmHg 65%
    17:00 +23°C° 0 mm 4 mps 721 mmHg 65%
    18:00 +22°C° 0 mm 3 mps 721 mmHg 71%
    19:00 +21°C° 0 mm 2 mps 721 mmHg 76%
    20:00 +19°C° 0 mm 2 mps 722 mmHg 82%
    21:00 +20°C° 0 mm 1 mps 722 mmHg 82%
    22:00 +20°C° 0 mm 1 mps 722 mmHg 82%
    23:00 +20°C° 0 mm 1 mps 722 mmHg 82%

    25 Octubre, Jueves

    Tiempo Temperatura Precipitaciones Viento Presión Humedad
    00:00 +20°C° 0 mm 1 mps 721 mmHg 83%
    01:00 +20°C° 0 mm 1 mps 721 mmHg 83%
    02:00 +20°C° 0 mm 1 mps 721 mmHg 84%
    03:00 +20°C° 0 mm 1 mps 721 mmHg 86%
    04:00 +20°C° 0 mm 1 mps 720 mmHg 88%
    05:00 +20°C° 0 mm 1 mps 720 mmHg 90%
    06:00 +19°C° 0 mm 2 mps 721 mmHg 87%
    07:00 +20°C° 0 mm 2 mps 721 mmHg 83%
    08:00 +21°C° 0 mm 2 mps 721 mmHg 80%
    09:00 +23°C° 0 mm 2 mps 721 mmHg 77%
    10:00 +24°C° 0 mm 2 mps 721 mmHg 73%
    11:00 +25°C° 0 mm 3 mps 721 mmHg 70%
    12:00 +26°C° 0.1 mm 3 mps 721 mmHg 66%
    13:00 +27°C° 0.1 mm 3 mps 721 mmHg 62%
    14:00 +28°C° 0.1 mm 2 mps 720 mmHg 58%
    15:00 +28°C° 0.6 mm 3 mps 720 mmHg 58%
    16:00 +28°C° 0.6 mm 3 mps 720 mmHg 58%
    17:00 +28°C° 0.6 mm 3 mps 720 mmHg 58%
    18:00 +26°C° 0.8 mm 4 mps 721 mmHg 67%
    19:00 +23°C° 0.8 mm 5 mps 721 mmHg 76%
    20:00 +21°C° 0.8 mm 6 mps 722 mmHg 85%
    21:00 +20°C° 0.1 mm 5 mps 723 mmHg 86%
    22:00 +20°C° 0.1 mm 5 mps 723 mmHg 86%
    23:00 +19°C° 0.1 mm 5 mps 724 mmHg 87%
    Mostrar más